Home   Weather   Sopron   Past weeks

Flag for Hungary Past Weather in Sopron, Hungary — Yesterday and Last 2 Weeks

Now
49 °F

Scattered clouds.


Feels Like: 49 °F
Forecast: 48 / 68 °F
Wind: 2 mph from North

Location: Eisenstadt

Current Time: Sep 26, 2016 at 7:24:57 AM

Latest Report: Sep 26, 2016 at 7:00 AM


Visibility: 6 mi

Pressure: 30.17 "Hg

Humidity: 90%

Dew Point: 47 °F

Location of SopronLocation

Past Weather in Sopron — Graph

°F

Sopron Temperature Yesterday

Maximum temperature yesterday: 71 °F (at 5:00 PM)
Minimum temperature yesterday: 48 °F (at 7:00 AM)
Average temperature yesterday: 59 °F

High & Low Weather Summary for the Past Weeks

 TemperatureHumidityPressure
High86 °F (Sep 12, 4:00 PM)95% (Sep 18, 7:00 AM)30.33 "Hg (Sep 18, 7:00 AM)
Low44 °F (Sep 23, 7:00 AM)36% (Sep 11, 5:00 PM)29.75 "Hg (Sep 17, 5:00 AM)
Average64 °F70%30.02 "Hg
* Reported Sep 11 6:00 AM — Sep 26 6:00 AM, Sopron, Weather by CustomWeather, © 2016

Note: Actual official high and low records may vary slightly from our data, if they occured in-between our weather recording intervals... More about our weather records

Advertising

Sopron Weather History for the Previous 24 Hours

Scroll right to see more
 ConditionsComfort  
Time TempWeatherWind HumidityBarometerVisibility
6:00 AM
Mon, Sep 26
50 °FClear.3 mph88%30.16 "Hg12 mi
5:00 AM51 °FClear.2 mph87%30.15 "Hg11 mi
4:00 AM51 °FPassing clouds.3 mph88%30.15 "Hg11 mi
3:00 AM52 °FCool.2 mph86%30.15 "HgN/A
2:00 AM53 °FPassing clouds.6 mph84%30.15 "Hg12 mi
1:00 AM54 °FCool.2 mph83%30.14 "HgN/A
12:00 AM55 °FCool.2 mph80%30.14 "HgN/A
11:00 PM
Sun, Sep 25
56 °FPassing clouds.3 mph77%30.14 "Hg12 mi
10:00 PM57 °FCool.5 mph73%30.13 "HgN/A
9:00 PM59 °FCool.2 mph67%30.12 "HgN/A
8:00 PM59 °FPassing clouds.6 mph70%30.11 "Hg9 mi
7:00 PM62 °FPassing clouds.6 mph68%30.10 "Hg9 mi
6:00 PM70 °FMild.2 mph47%30.08 "HgN/A
5:00 PM71 °FPassing clouds.2 mph43%30.09 "Hg9 mi
4:00 PM71 °FMild.3 mph43%30.09 "HgN/A
3:00 PM71 °FMild.2 mph42%30.11 "HgN/A
2:00 PM70 °FSunny.5 mph46%30.13 "Hg9 mi
1:00 PM68 °FMild.5 mph52%30.15 "HgN/A
12:00 PM65 °FMild.5 mph55%30.17 "HgN/A
11:00 AM64 °FFog.2 mph60%30.19 "Hg3 mi
10:00 AM59 °FCool.1 mph69%30.21 "HgN/A
9:00 AM57 °FCool.1 mph73%30.21 "HgN/A
8:00 AM50 °FSunny.1 mph88%30.22 "Hg5 mi
7:00 AM48 °FSunny.2 mph91%30.22 "Hg5 mi
Weather by CustomWeather, © 2016

See weather overviewHow to use our weather pages